User: anonymous   Login
Location: Indian Springs
(36.5700°N, 115.6700°W)
Time: 13:13:17
(UTC-08:00)
Language:

Cosmos 2278 Rocket - Orbit

View from above orbital plane
View from above orbital plane
View from above satellite
View from above satellite

Ground track
Ground track

The orbit data is extracted from the following two-line orbital elements,

1 23088U 94023B   16344.06378220  .00000110  00000-0  82072-4 0  9990
2 23088  70.9992 321.0940 0002828 347.5781  12.5271 14.14645474168657
Epoch (UTC): 09 December 2016 01:31:50
Eccentricity: 0.0002828
inclination: 70.9992°
perigee height: 841 km
apogee height: 845 km
right ascension of ascending node: 321.0940°
argument of perigee: 347.5781°
revolutions per day: 14.14645474
mean anomaly at epoch: 12.5271°
orbit number at epoch: 16865

The dashed part of the orbit path shows where the satellite is in the earth's shadow,  

DLR